• In India
  • List of Countries
  • For 7 days
  • Water Temperature
  • Satellite Maps
  • Weather Map
  • Weather Widgets
  • user-avatar
    Login

    Hourly Weather Ridna Ukraina

    Today, 17 August, Friday

    Time Temperature Precipitation Wind Pressure Humidity
    00:00 +27°C° 0 mm 2 mps 756 mmHg 37%
    01:00 +27°C° 0 mm 2 mps 756 mmHg 37%
    02:00 +26°C° 0 mm 2 mps 756 mmHg 38%
    03:00 +26°C° 0 mm 3 mps 756 mmHg 39%
    04:00 +26°C° 0 mm 3 mps 756 mmHg 39%
    05:00 +25°C° 0 mm 3 mps 756 mmHg 40%
    06:00 +28°C° 0 mm 3 mps 756 mmHg 36%
    07:00 +30°C° 0 mm 4 mps 756 mmHg 32%
    08:00 +33°C° 0 mm 4 mps 757 mmHg 28%
    09:00 +35°C° 0 mm 4 mps 757 mmHg 25%
    10:00 +36°C° 0 mm 5 mps 757 mmHg 22%
    11:00 +39°C° 0 mm 5 mps 757 mmHg 19%
    12:00 +39°C° 0 mm 5 mps 757 mmHg 19%
    13:00 +40°C° 0 mm 5 mps 756 mmHg 18%
    14:00 +40°C° 0 mm 5 mps 756 mmHg 18%
    15:00 +38°C° 0 mm 4 mps 756 mmHg 19%
    16:00 +37°C° 0 mm 4 mps 756 mmHg 21%
    17:00 +36°C° 0 mm 4 mps 756 mmHg 22%
    18:00 +34°C° 0 mm 4 mps 756 mmHg 26%
    19:00 +31°C° 0 mm 3 mps 756 mmHg 29%
    20:00 +29°C° 0 mm 3 mps 756 mmHg 33%
    21:00 +28°C° 0 mm 2 mps 756 mmHg 34%
    22:00 +27°C° 0 mm 2 mps 757 mmHg 35%
    23:00 +27°C° 0 mm 2 mps 757 mmHg 37%

    Tomorrow, 18 August, Saturday

    Time Temperature Precipitation Wind Pressure Humidity
    00:00 +26°C° 0 mm 3 mps 757 mmHg 37%
    01:00 +26°C° 0 mm 3 mps 757 mmHg 37%
    02:00 +26°C° 0 mm 4 mps 757 mmHg 38%
    03:00 +25°C° 0 mm 4 mps 757 mmHg 40%
    04:00 +23°C° 0 mm 4 mps 757 mmHg 42%
    05:00 +23°C° 0 mm 4 mps 757 mmHg 44%
    06:00 +26°C° 0 mm 4 mps 757 mmHg 40%
    07:00 +28°C° 0 mm 4 mps 758 mmHg 36%
    08:00 +30°C° 0 mm 4 mps 758 mmHg 32%
    09:00 +33°C° 0 mm 4 mps 758 mmHg 29%
    10:00 +35°C° 0 mm 4 mps 758 mmHg 25%
    11:00 +37°C° 0 mm 4 mps 758 mmHg 21%
    12:00 +37°C° 0 mm 4 mps 758 mmHg 22%
    13:00 +37°C° 0 mm 4 mps 758 mmHg 23%
    14:00 +37°C° 0 mm 4 mps 758 mmHg 24%
    15:00 +36°C° 0 mm 4 mps 758 mmHg 25%
    16:00 +36°C° 0 mm 4 mps 758 mmHg 26%
    17:00 +35°C° 0 mm 4 mps 758 mmHg 27%
    18:00 +33°C° 0 mm 4 mps 758 mmHg 31%
    19:00 +32°C° 0 mm 4 mps 758 mmHg 35%
    20:00 +29°C° 0 mm 4 mps 758 mmHg 39%
    21:00 +28°C° 0 mm 4 mps 758 mmHg 41%
    22:00 +27°C° 0 mm 4 mps 759 mmHg 43%
    23:00 +26°C° 0 mm 4 mps 759 mmHg 46%

    Day after tomorrow, 19 August, Sunday

    Time Temperature Precipitation Wind Pressure Humidity
    00:00 +25°C° 0 mm 4 mps 759 mmHg 47%
    01:00 +25°C° 0 mm 5 mps 759 mmHg 49%
    02:00 +23°C° 0 mm 5 mps 759 mmHg 51%
    03:00 +22°C° 0 mm 5 mps 759 mmHg 53%
    04:00 +22°C° 0 mm 5 mps 759 mmHg 54%
    05:00 +21°C° 0 mm 5 mps 759 mmHg 56%
    06:00 +23°C° 0 mm 5 mps 759 mmHg 51%
    07:00 +26°C° 0 mm 5 mps 759 mmHg 46%
    08:00 +27°C° 0 mm 5 mps 760 mmHg 41%
    09:00 +29°C° 0 mm 5 mps 760 mmHg 36%
    10:00 +30°C° 0 mm 5 mps 760 mmHg 30%
    11:00 +33°C° 0 mm 5 mps 760 mmHg 25%
    12:00 +34°C° 0 mm 5 mps 759 mmHg 23%
    13:00 +34°C° 0 mm 4 mps 759 mmHg 21%
    14:00 +35°C° 0 mm 4 mps 759 mmHg 19%
    15:00 +34°C° 0 mm 4 mps 759 mmHg 19%
    16:00 +34°C° 0 mm 4 mps 759 mmHg 19%
    17:00 +34°C° 0 mm 4 mps 759 mmHg 19%
    18:00 +30°C° 0 mm 4 mps 759 mmHg 25%
    19:00 +27°C° 0 mm 4 mps 759 mmHg 30%
    20:00 +24°C° 0 mm 3 mps 759 mmHg 36%
    21:00 +22°C° 0 mm 3 mps 759 mmHg 38%
    22:00 +21°C° 0 mm 3 mps 759 mmHg 40%
    23:00 +20°C° 0 mm 3 mps 760 mmHg 43%

    20 August, Monday

    Time Temperature Precipitation Wind Pressure Humidity
    00:00 +20°C° 0 mm 3 mps 759 mmHg 42%
    01:00 +20°C° 0 mm 3 mps 759 mmHg 41%
    02:00 +19°C° 0 mm 3 mps 759 mmHg 40%
    03:00 +19°C° 0 mm 4 mps 759 mmHg 41%
    04:00 +19°C° 0 mm 4 mps 759 mmHg 41%
    05:00 +18°C° 0 mm 4 mps 759 mmHg 41%
    06:00 +20°C° 0 mm 4 mps 760 mmHg 38%
    07:00 +23°C° 0 mm 5 mps 760 mmHg 34%
    08:00 +26°C° 0 mm 5 mps 760 mmHg 30%
    09:00 +27°C° 0 mm 5 mps 760 mmHg 27%
    10:00 +29°C° 0 mm 5 mps 760 mmHg 23%
    11:00 +32°C° 0 mm 5 mps 760 mmHg 20%
    12:00 +32°C° 0 mm 5 mps 760 mmHg 19%
    13:00 +33°C° 0 mm 5 mps 759 mmHg 18%
    14:00 +34°C° 0 mm 4 mps 759 mmHg 17%
    15:00 +33°C° 0 mm 4 mps 759 mmHg 17%
    16:00 +33°C° 0 mm 4 mps 759 mmHg 18%
    17:00 +33°C° 0 mm 4 mps 759 mmHg 19%
    18:00 +29°C° 0 mm 4 mps 759 mmHg 24%
    19:00 +26°C° 0 mm 4 mps 759 mmHg 30%
    20:00 +22°C° 0 mm 3 mps 759 mmHg 36%
    21:00 +21°C° 0 mm 3 mps 759 mmHg 38%
    22:00 +20°C° 0 mm 3 mps 759 mmHg 40%
    23:00 +19°C° 0 mm 2 mps 759 mmHg 42%

    21 August, Tuesday

    Time Temperature Precipitation Wind Pressure Humidity
    00:00 +19°C° 0 mm 2 mps 759 mmHg 42%
    01:00 +19°C° 0 mm 3 mps 759 mmHg 41%
    02:00 +19°C° 0 mm 3 mps 759 mmHg 41%
    03:00 +19°C° 0 mm 3 mps 759 mmHg 40%
    04:00 +19°C° 0 mm 4 mps 759 mmHg 40%
    05:00 +18°C° 0 mm 4 mps 759 mmHg 40%
    06:00 +21°C° 0 mm 4 mps 760 mmHg 36%
    07:00 +23°C° 0 mm 4 mps 760 mmHg 32%
    08:00 +27°C° 0 mm 4 mps 760 mmHg 27%
    09:00 +28°C° 0 mm 4 mps 760 mmHg 24%
    10:00 +30°C° 0 mm 4 mps 760 mmHg 21%
    11:00 +33°C° 0 mm 4 mps 760 mmHg 18%
    12:00 +33°C° 0 mm 3 mps 760 mmHg 17%
    13:00 +34°C° 0 mm 3 mps 759 mmHg 16%
    14:00 +35°C° 0 mm 3 mps 759 mmHg 15%
    15:00 +35°C° 0 mm 3 mps 759 mmHg 16%
    16:00 +34°C° 0 mm 3 mps 759 mmHg 17%
    17:00 +34°C° 0 mm 3 mps 759 mmHg 17%
    18:00 +30°C° 0 mm 3 mps 759 mmHg 22%
    19:00 +27°C° 0 mm 3 mps 759 mmHg 27%
    20:00 +24°C° 0 mm 2 mps 759 mmHg 32%
    21:00 +23°C° 0 mm 2 mps 759 mmHg 33%
    22:00 +23°C° 0 mm 2 mps 759 mmHg 35%
    23:00 +21°C° 0 mm 2 mps 759 mmHg 37%

    22 August, Wednesday

    Time Temperature Precipitation Wind Pressure Humidity
    00:00 +21°C° 0 mm 2 mps 759 mmHg 36%
    01:00 +20°C° 0 mm 2 mps 759 mmHg 36%
    02:00 +20°C° 0 mm 2 mps 759 mmHg 36%
    03:00 +20°C° 0 mm 2 mps 759 mmHg 36%
    04:00 +20°C° 0 mm 2 mps 760 mmHg 36%
    05:00 +20°C° 0 mm 3 mps 760 mmHg 36%
    06:00 +22°C° 0 mm 3 mps 760 mmHg 33%
    07:00 +26°C° 0 mm 3 mps 760 mmHg 29%
    08:00 +28°C° 0 mm 3 mps 760 mmHg 25%
    09:00 +30°C° 0 mm 3 mps 760 mmHg 22%
    10:00 +33°C° 0 mm 3 mps 760 mmHg 19%
    11:00 +34°C° 0 mm 3 mps 760 mmHg 17%
    12:00 +35°C° 0 mm 3 mps 760 mmHg 16%
    13:00 +36°C° 0 mm 3 mps 759 mmHg 15%
    14:00 +36°C° 0 mm 2 mps 759 mmHg 14%
    15:00 +36°C° 0 mm 3 mps 759 mmHg 15%
    16:00 +36°C° 0 mm 3 mps 759 mmHg 16%
    17:00 +35°C° 0 mm 3 mps 759 mmHg 16%
    18:00 +33°C° 0 mm 3 mps 759 mmHg 22%
    19:00 +29°C° 0 mm 3 mps 759 mmHg 28%
    20:00 +26°C° 0 mm 3 mps 759 mmHg 34%
    21:00 +25°C° 0 mm 2 mps 759 mmHg 36%
    22:00 +24°C° 0 mm 2 mps 759 mmHg 39%
    23:00 +23°C° 0 mm 2 mps 759 mmHg 41%
    Show more